Location: Star Dogged Moon Observatory
(29.7756°N, 82.0783°W)
Time: 02:52:29
(UTC-05:00)

Amateur Radio Satellites - All Passes

Search period start: 30 January 2015 02:22
Search period end: 31 January 2015 02:22
Location: Star Dogged Moon Observatory, 29.7756°N, 82.0783°W

Satellite Date Start Highest point End Downlink Frequencies (MHz)
Time Altitude Azimuth
ITAMSAT 1 30 Jan 02:28:44 02:33:51 55° 100° (E) 02:38:59 435.822/435.867
SWISSCUBE 30 Jan 02:36:48 02:39:01 13° 268° (W) 02:40:55 437.505
STARS 30 Jan 02:50:15 02:54:42 83° 258° (WSW) 02:59:11 437.465
PCSat 30 Jan 02:53:38 02:56:09 14° 106° (ESE) 02:59:01 145.827
KKS-1 30 Jan 02:58:35 03:02:48 40° 261° (W) 03:07:01 437.445
M-CUBED/EXP-1 PRIME 30 Jan 03:07:17 03:11:30 78° 254° (WSW) 03:15:22 437.505
HORYU 2 30 Jan 03:09:54 03:13:31 25° 96° (E) 03:17:13 437.375
O/OREOS (USA 219) 30 Jan 03:10:31 03:14:53 44° 255° (WSW) 03:19:14 437.305
AIST 2 30 Jan 03:14:12 03:18:09 38° 301° (WNW) 03:22:09 435.215
BEESAT 2 30 Jan 03:16:18 03:18:47 15° 308° (NW) 03:21:07 435.950
DANDE 30 Jan 03:20:27 03:26:26 25° 87° (E) 03:33:14 436.750
AO-7 30 Jan 03:29:50 03:36:07 25° 95° (E) 03:42:44 29.400- 29.500
Gurwin Techsat 1B 30 Jan 03:30:08 03:35:18 51° 286° (WNW) 03:40:25 435.225
RS-15 30 Jan 03:38:22 03:47:33 34° 108° (ESE) 03:57:00 29.354- 29.394
AUBIESAT-1 30 Jan 03:40:21 03:44:05 31° 256° (WSW) 03:47:33 437.475
CUSAT 1 30 Jan 03:43:54 03:51:16 46° 91° (E) 03:59:16 437.405
ITAMSAT 1 30 Jan 04:10:13 04:12:58 14° 292° (WNW) 04:15:25 435.822/435.867
PCSat 30 Jan 04:33:52 04:39:10 55° 297° (WNW) 04:44:30 145.827
ISS 30 Jan 04:37:06 04:39:43 22° 39° (NE) 04:42:23 145.825
JAS-2 30 Jan 04:40:12 04:45:50 43° 100° (E) 04:52:12 435.910
MOZHAYETS 4 30 Jan 04:42:52 04:47:29 90° 313° (NW) 04:52:04
HORYU 2 30 Jan 04:46:42 04:50:05 21° 288° (WNW) 04:53:20 437.375
DANDE 30 Jan 05:01:31 05:09:21 61° 281° (WNW) 05:17:56 436.750
AO-7 30 Jan 05:21:14 05:29:20 57° 290° (WNW) 05:37:21 29.400- 29.500
CUSAT 1 30 Jan 05:27:14 05:34:28 34° 287° (WNW) 05:41:53 437.405
STRAND 1 30 Jan 05:30:15 05:32:35 14° 68° (ENE) 05:35:14 437.568
RS-15 30 Jan 05:48:52 05:59:31 54° 304° (WNW) 06:10:08 29.354- 29.394
ISS 30 Jan 06:13:29 06:16:10 22° 232° (SW) 06:18:47 145.825
Cubesat XI-IV 30 Jan 06:17:59 06:23:04 43° 99° (E) 06:28:11 437.490
PRISM 30 Jan 06:18:21 06:22:27 76° 258° (WSW) 06:26:34 437.425
YUBILEINY 30 Jan 06:18:48 06:26:24 33° 75° (ENE) 06:34:14 435.215
JAS-2 30 Jan 06:26:12 06:30:48 23° 288° (WNW) 06:35:34 435.910
CUTE-I 30 Jan 06:37:30 06:42:51 69° 101° (E) 06:48:13 437.470
CUBESAT XI-V 30 Jan 06:37:52 06:42:27 73° 260° (W) 06:47:03 437.345
PHONESAT 2.4 30 Jan 06:42:41 06:43:55 12° 139° (SE) 06:45:18 2401.200-2431.200
STRAND 1 30 Jan 07:06:27 07:11:25 53° 260° (W) 07:16:24 437.568
VERMONT LUNAR 30 Jan 07:14:06 07:17:26 47° 146° (SE) 07:20:48 437.305
Cubesat XI-IV 30 Jan 07:59:11 08:02:53 18° 291° (WNW) 08:06:22 437.490
HO-68 30 Jan 08:11:00 08:16:05 22° 94° (E) 08:21:28 435.675
RS-15 30 Jan 08:11:01 08:15:24 12° 331° (NNW) 08:19:08 29.354- 29.394
CUTE 1.7 + AOD 2 30 Jan 08:12:59 08:14:04 11° 91° (E) 08:15:27 437.475
GOMX 1 30 Jan 08:14:03 08:16:59 16° 90° (E) 08:20:05 467.674
YUBILEINY 30 Jan 08:15:12 08:23:20 42° 270° (W) 08:31:21 435.215
PHONESAT 2.4 30 Jan 08:18:34 08:22:10 89° 315° (NW) 08:25:47 2401.200-2431.200
CUTE-I 30 Jan 08:20:30 08:22:27 12° 293° (WNW) 08:24:02 437.470
BRITE-PL 30 Jan 08:22:19 08:27:09 31° 95° (E) 08:31:50 437.365/2234.400
DOVE 4 30 Jan 08:22:34 08:24:16 12° 89° (E) 08:26:18 437.250
SEEDS 30 Jan 08:40:22 08:43:33 22° 95° (E) 08:46:50 437.485
VERMONT LUNAR 30 Jan 08:52:35 08:55:39 28° 340° (NNW) 08:58:43 437.305
COMPASS 1 30 Jan 09:04:54 09:08:44 36° 98° (E) 09:12:35 437.405
DELFI C3 30 Jan 09:20:47 09:23:15 16° 94° (E) 09:25:52 145.870
CANX-2 30 Jan 09:22:03 09:26:17 76° 283° (WNW) 09:30:28 2200.000
AAUSAT CUBESAT 2 30 Jan 09:30:10 09:34:18 69° 101° (ESE) 09:38:25 437.432
CINEMA 3 30 Jan 09:36:41 09:41:14 46° 98° (E) 09:45:35 145.822/145.860
UWE-3 30 Jan 09:43:30 09:46:58 23° 95° (E) 09:50:28 435.000/436.395/437.385
CUTE 1.7 + AOD 2 30 Jan 09:46:17 09:50:15 40° 285° (WNW) 09:54:11 437.475
UNISAT 6 30 Jan 09:48:15 09:52:16 29° 73° (ENE) 09:56:21 437.425
GOMX 1 30 Jan 09:50:19 09:55:27 46° 286° (WNW) 10:00:14 467.674
Oscar 11 30 Jan 09:51:12 09:55:24 54° 99° (E) 09:59:37 145.826/435.025
POPSAT HIP 1 30 Jan 09:53:16 09:55:55 17° 71° (ENE) 09:58:45 437.405
DUCHIFAT 1 30 Jan 09:55:12 09:57:56 17° 71° (ENE) 10:00:50 145.980
HO-68 30 Jan 09:57:13 10:04:10 55° 288° (WNW) 10:11:04 435.675
DOVE 4 30 Jan 09:57:32 10:02:31 53° 285° (WNW) 10:07:12 437.250
PHONESAT 2.4 30 Jan 09:58:12 10:01:03 21° 345° (NNW) 10:03:55 2401.200-2431.200
BRITE-PL 30 Jan 10:00:51 10:05:32 27° 289° (WNW) 10:09:53 437.365/2234.400
50 SAT 30 Jan 10:07:16 10:08:34 12° 92° (E) 10:10:06 437.505
VELOX 1 30 Jan 10:11:39 10:14:25 17° 94° (E) 10:17:23 145.980
SEEDS 30 Jan 10:16:05 10:19:19 21° 287° (WNW) 10:22:25 437.485
SO-50 30 Jan 10:21:05 10:25:30 57° 299° (WNW) 10:30:05 436.795
ANTELSAT 30 Jan 10:23:33 10:28:16 77° 77° (ENE) 10:33:00 437.575/2403.000
UKube-1 30 Jan 10:27:04 10:31:26 79° 102° (ESE) 10:35:47 .
NANOSAT C BR1 30 Jan 10:28:36 10:32:39 46° 75° (ENE) 10:36:47 145.865
TIGRISAT 30 Jan 10:30:38 10:35:21 90° 134° (SE) 10:40:04 435.000
VERMONT LUNAR 30 Jan 10:32:30 10:34:29 14° 356° (N) 10:36:27 437.305
HUMSAT D 30 Jan 10:38:39 10:42:41 46° 99° (E) 10:46:41 437.325/437.525
CUBEBUG 2 30 Jan 10:41:33 10:45:56 51° 284° (WNW) 10:50:09 437.445
COMPASS 1 30 Jan 10:42:13 10:44:11 13° 289° (WNW) 10:45:57 437.405
QB50P2 30 Jan 10:43:21 10:47:37 75° 77° (ENE) 10:51:55 145.880/145.840
ZACube-1 30 Jan 10:44:11 10:48:33 72° 283° (WNW) 10:52:47 437.345
DX 1 30 Jan 10:49:19 10:53:35 51° 285° (WNW) 10:57:50 434.975-435.025
QB50P1 30 Jan 10:52:17 10:56:33 85° 258° (WSW) 11:00:51 145.935-145.965
DELFI C3 30 Jan 10:55:07 10:58:32 26° 286° (WNW) 11:01:52 145.870
FUNcube-1 30 Jan 10:55:51 11:00:06 51° 285° (WNW) 11:04:14 145.935
BUGSAT 1 30 Jan 10:58:20 11:02:24 84° 78° (ENE) 11:06:33 437.445
POLYITAN 1 30 Jan 11:07:56 11:12:07 52° 260° (W) 11:16:21 437.675
CINEMA 3 30 Jan 11:15:42 11:18:02 13° 291° (WNW) 11:20:04 145.822/145.860
AISAT 30 Jan 11:19:03 11:23:32 69° 284° (WNW) 11:28:00 437.250
UWE-3 30 Jan 11:20:00 11:23:27 22° 288° (WNW) 11:26:42 435.000/436.395/437.385
ESTCUBE 1 30 Jan 11:25:28 11:29:54 54° 100° (E) 11:34:21 437.505/2401.250
UNISAT 6 30 Jan 11:25:28 11:29:04 21° 265° (W) 11:32:32 437.425
AIST 1 30 Jan 11:25:33 11:29:47 78° 96° (E) 11:34:03
POPSAT HIP 1 30 Jan 11:27:51 11:31:38 30° 263° (W) 11:35:23 437.405
DUCHIFAT 1 30 Jan 11:29:54 11:33:37 28° 263° (W) 11:37:17 145.980
SPROUT 30 Jan 11:34:40 11:36:14 12° 92° (E) 11:38:04 437.525
PHONESAT 2.4 30 Jan 11:38:19 11:40:28 15° 2° (N) 11:42:38 2401.200-2431.200
BEESAT 2 30 Jan 11:39:47 11:43:53 56° 61° (ENE) 11:47:55 435.950
50 SAT 30 Jan 11:40:11 11:43:53 35° 286° (WNW) 11:47:30 437.505
AIST 2 30 Jan 11:42:06 11:45:29 23° 55° (NE) 11:48:54 435.215
VELOX 1 30 Jan 11:47:05 11:51:07 32° 287° (WNW) 11:55:04 145.980
CUBEBUG 1 30 Jan 11:51:31 11:55:59 77° 282° (WNW) 12:00:24 437.445
BEESAT 3 30 Jan 11:52:41 11:56:50 84° 244° (WSW) 12:00:54 437.485
TISAT 1 30 Jan 12:05:58 12:09:42 29° 97° (E) 12:13:29 437.305
NANOSAT C BR1 30 Jan 12:08:20 12:08:51 10° 269° (W) 12:09:03 145.865
VERMONT LUNAR 30 Jan 12:10:54 12:13:27 19° 13° (NNE) 12:16:01 437.305
HUMSAT D 30 Jan 12:17:19 12:18:08 10° 290° (WNW) 12:18:38 437.325/437.525
GONETS M04 30 Jan 12:21:11 12:29:23 46° 78° (ENE) 12:37:40
RS-15 30 Jan 12:45:52 12:54:26 25° 43° (NE) 13:03:46 29.354- 29.394
SWISSCUBE 30 Jan 13:03:39 13:07:04 20° 95° (E) 13:10:39 437.505
ESTCUBE 1 30 Jan 13:05:17 13:06:24 11° 291° (WNW) 13:07:13 437.505/2401.250
Gurwin Techsat 1B 30 Jan 13:08:29 13:10:43 13° 68° (ENE) 13:13:16 435.225
SPROUT 30 Jan 13:08:29 13:12:35 40° 285° (WNW) 13:16:37 437.525
PHONESAT 2.4 30 Jan 13:16:43 13:19:49 26° 18° (NNE) 13:22:57 2401.200-2431.200
BEESAT 30 Jan 13:18:44 13:22:44 27° 96° (E) 13:26:50 436.000
AIST 2 30 Jan 13:20:38 13:24:02 23° 249° (WSW) 13:27:19 435.215
Oscar 19 30 Jan 13:21:41 13:26:53 89° 253° (WSW) 13:32:07 437.125/150
ITUPSAT 1 30 Jan 13:23:16 13:27:26 30° 97° (E) 13:31:41 437.325
PCSat 30 Jan 13:28:06 13:32:55 33° 59° (ENE) 13:37:47 145.827
ITAMSAT 1 30 Jan 13:40:52 13:45:44 45° 74° (ENE) 13:50:41 435.822/435.867
TISAT 1 30 Jan 13:42:30 13:45:20 17° 289° (WNW) 13:48:00 437.305
VERMONT LUNAR 30 Jan 13:48:28 13:51:58 69° 28° (NNE) 13:55:28 437.305
HORYU 2 30 Jan 14:04:35 14:06:11 12° 69° (ENE) 14:08:04 437.375
GONETS M04 30 Jan 14:18:39 14:25:57 30° 272° (W) 14:32:59
AO-7 30 Jan 14:23:24 14:28:59 21° 62° (ENE) 14:34:58 29.400- 29.500
CUSAT 1 30 Jan 14:36:01 14:38:57 15° 65° (ENE) 14:41:41 437.405
SWISSCUBE 30 Jan 14:40:47 14:44:59 30° 287° (WNW) 14:49:07 437.505
Gurwin Techsat 1B 30 Jan 14:45:02 14:50:16 59° 259° (W) 14:55:31 435.225
STARS 30 Jan 14:46:47 14:50:38 29° 97° (E) 14:54:31 437.465
PHONESAT 2.4 30 Jan 14:54:58 14:58:34 62° 213° (SSW) 15:02:10 2401.200-2431.200
KKS-1 30 Jan 14:55:36 15:00:03 63° 101° (E) 15:04:28 437.445
BEESAT 30 Jan 14:56:44 15:00:29 23° 289° (WNW) 15:04:07 436.000
RS-15 30 Jan 14:56:50 15:08:24 85° 244° (WSW) 15:20:27 29.354- 29.394
ITUPSAT 1 30 Jan 15:01:35 15:05:11 21° 289° (WNW) 15:08:39 437.325
PCSat 30 Jan 15:11:48 15:16:12 25° 252° (WSW) 15:20:26 145.827
ITAMSAT 1 30 Jan 15:22:20 15:25:31 16° 267° (W) 15:28:26 435.822/435.867
AUBIESAT-1 30 Jan 15:27:34 15:30:23 24° 103° (ESE) 15:33:22 437.475
VERMONT LUNAR 30 Jan 15:27:41 15:29:50 15° 220° (SW) 15:31:53 437.305
O/OREOS (USA 219) 30 Jan 15:37:28 15:41:41 43° 105° (ESE) 15:45:58 437.305
HORYU 2 30 Jan 15:38:10 15:42:32 47° 261° (W) 15:46:52 437.375
DANDE 30 Jan 15:55:09 16:01:06 84° 265° (W) 16:05:25 436.750
JUGNU 30 Jan 16:00:08 16:04:16 20° 166° (SSE) 16:08:30 437.505
AO-7 30 Jan 16:12:48 16:21:08 71° 255° (WSW) 16:29:30 29.400- 29.500
CUSAT 1 30 Jan 16:17:38 16:22:29 34° 271° (W) 16:26:08 437.405
STARS 30 Jan 16:23:50 16:26:56 18° 289° (WNW) 16:29:52 437.465
M-CUBED/EXP-1 PRIME 30 Jan 16:30:13 16:33:12 29° 289° (WNW) 16:36:15 437.505
JAS-2 30 Jan 16:31:34 16:37:14 80° 77° (ENE) 16:42:30 435.910
SRMSAT 30 Jan 16:43:55 16:47:01 15° 163° (SSE) 16:50:14 437.500
MOZHAYETS 4 30 Jan 16:44:29 16:48:37 34° 97° (E) 16:52:47
AUBIESAT-1 30 Jan 17:03:39 17:05:11 12° 292° (WNW) 17:06:35 437.475
RS-15 30 Jan 17:13:24 17:19:53 15° 256° (WSW) 17:25:18 29.354- 29.394
O/OREOS (USA 219) 30 Jan 17:19:09 17:21:23 13° 300° (WNW) 17:23:23 437.305
Cubesat XI-IV 30 Jan 17:34:14 17:39:06 39° 73° (ENE) 17:44:04 437.490
JUGNU 30 Jan 17:47:44 17:52:49 30° 175° (S) 17:57:58 437.505
CUTE-I 30 Jan 17:53:24 17:58:37 62° 75° (ENE) 18:03:54 437.470
PRISM 30 Jan 18:07:46 18:11:06 24° 97° (E) 18:14:31 437.425
MOZHAYETS 4 30 Jan 18:22:39 18:25:37 17° 289° (WNW) 18:28:25
SRMSAT 30 Jan 18:30:49 18:35:43 26° 171° (S) 18:40:39 437.500
CUBESAT XI-V 30 Jan 18:40:46 18:45:16 45° 99° (E) 18:49:47 437.345
SO-50 30 Jan 18:58:37 19:02:44 27° 55° (NE) 19:06:55 436.795
YUBILEINY 30 Jan 19:11:45 19:19:50 46° 90° (E) 19:28:02 435.215
Cubesat XI-IV 30 Jan 19:15:35 19:19:23 19° 266° (W) 19:22:58 437.490
STRAND 1 30 Jan 19:22:55 19:28:05 87° 98° (E) 19:33:16 437.568
BRITE-PL 30 Jan 19:27:45 19:31:03 18° 69° (ENE) 19:34:42 437.365/2234.400
JUGNU 30 Jan 19:36:18 19:41:26 30° 185° (S) 19:46:35 437.505
CUTE-I 30 Jan 19:37:16 19:39:11 11° 269° (W) 19:40:42 437.470
ISS 30 Jan 19:38:18 19:39:03 11° 126° (SE) 19:39:58 145.825
PRISM 30 Jan 19:43:27 19:46:31 20° 288° (WNW) 19:49:28 437.425
COMPASS 1 30 Jan 19:52:39 19:54:22 13° 71° (ENE) 19:56:19 437.405
CANX-2 30 Jan 20:09:21 20:13:13 34° 75° (ENE) 20:17:07 2200.000
AAUSAT CUBESAT 2 30 Jan 20:16:13 20:19:22 22° 73° (ENE) 20:22:39 437.432
HO-68 30 Jan 20:18:32 20:25:32 62° 73° (ENE) 20:32:35 435.675
SRMSAT 30 Jan 20:19:13 20:24:28 32° 181° (S) 20:29:45 437.500
CUBESAT XI-V 30 Jan 20:19:57 20:22:23 14° 290° (WNW) 20:24:35 437.345
CINEMA 3 30 Jan 20:32:39 20:36:26 23° 72° (ENE) 20:40:26 145.822/145.860
CUTE 1.7 + AOD 2 30 Jan 20:32:52 20:37:06 63° 77° (ENE) 20:41:20 437.475
UWE-3 30 Jan 20:37:11 20:38:15 11° 69° (ENE) 20:39:38 435.000/436.395/437.385
SO-50 30 Jan 20:39:03 20:43:16 28° 248° (WSW) 20:47:21 436.795
Oscar 11 30 Jan 20:41:00 20:44:08 20° 72° (ENE) 20:47:25 145.826/435.025
GOMX 1 30 Jan 20:51:22 20:56:20 83° 258° (WSW) 21:01:40 467.674
DOVE 4 30 Jan 20:56:07 21:01:05 79° 77° (ENE) 21:06:20 437.250
SEEDS 30 Jan 21:01:17 21:05:32 66° 260° (W) 21:09:45 437.485
BRITE-PL 30 Jan 21:04:33 21:09:12 40° 263° (W) 21:14:11 437.365/2234.400
YUBILEINY 30 Jan 21:09:28 21:16:54 30° 286° (WNW) 21:24:06 435.215
ISS 30 Jan 21:12:08 21:15:16 41° 317° (NW) 21:18:23 145.825
UKube-1 30 Jan 21:16:38 21:20:22 30° 73° (ENE) 21:24:11 .
JUGNU 30 Jan 21:25:44 21:30:00 20° 194° (SSW) 21:34:12 437.505
COMPASS 1 30 Jan 21:25:50 21:29:48 38° 262° (W) 21:33:45 437.405
HUMSAT D 30 Jan 21:26:01 21:28:43 17° 71° (ENE) 21:31:34 437.325/437.525
CUBEBUG 2 30 Jan 21:33:05 21:37:45 63° 76° (ENE) 21:42:30 437.445
ZACube-1 30 Jan 21:33:57 21:38:15 42° 75° (ENE) 21:42:38 437.345
DELFI C3 30 Jan 21:36:38 21:40:43 83° 77° (ENE) 21:44:49 145.870
DX 1 30 Jan 21:38:48 21:43:04 61° 76° (ENE) 21:47:24 434.975-435.025
AIST 1 30 Jan 21:41:40 21:42:41 11° 73° (ENE) 21:44:02
FUNcube-1 30 Jan 21:45:09 21:49:38 57° 76° (ENE) 21:54:10 145.935
CANX-2 30 Jan 21:46:53 21:49:18 14° 267° (W) 21:51:29 2200.000
AAUSAT CUBESAT 2 30 Jan 21:51:39 21:54:59 22° 265° (W) 21:58:11 437.432
SRMSAT 30 Jan 22:08:22 22:13:14 25° 190° (S) 22:18:03 437.500
HO-68 30 Jan 22:08:53 22:13:46 18° 267° (W) 22:18:14 435.675
CINEMA 3 30 Jan 22:09:14 22:13:30 29° 264° (W) 22:17:48 145.822/145.860
UWE-3 30 Jan 22:09:46 22:14:22 57° 261° (W) 22:19:00 435.000/436.395/437.385
AISAT 30 Jan 22:11:08 22:15:24 49° 75° (ENE) 22:19:45 437.250
Oscar 11 30 Jan 22:16:35 22:20:13 25° 264° (W) 22:23:46 145.826/435.025
ESTCUBE 1 30 Jan 22:20:02 22:23:36 24° 72° (ENE) 22:27:15 437.505/2401.250
50 SAT 30 Jan 22:21:06 22:25:09 58° 77° (ENE) 22:29:14 437.505
NANOSAT C BR1 30 Jan 22:21:52 22:23:33 12° 92° (E) 22:25:31 145.865
ANTELSAT 30 Jan 22:22:51 22:26:23 24° 96° (E) 22:29:57 437.575/2403.000
TIGRISAT 30 Jan 22:29:25 22:33:12 29° 96° (E) 22:36:57 435.000
QB50P2 30 Jan 22:35:57 22:39:02 20° 95° (E) 22:42:15 145.880/145.840
VELOX 1 30 Jan 22:38:22 22:42:46 77° 258° (WSW) 22:47:13 145.980
CUBEBUG 1 30 Jan 22:42:01 22:46:03 40° 74° (ENE) 22:50:09 437.445
QB50P1 30 Jan 22:44:20 22:47:51 25° 96° (E) 22:51:25 145.935-145.965
BUGSAT 1 30 Jan 22:47:37 22:50:45 20° 95° (E) 22:54:01 437.445
UKube-1 30 Jan 22:53:46 22:56:37 16° 266° (W) 22:59:17 .
TISAT 1 30 Jan 22:55:23 22:56:17 11° 69° (ENE) 22:57:29 437.305
POLYITAN 1 30 Jan 22:59:51 23:03:54 40° 98° (E) 23:07:56 437.675
HUMSAT D 30 Jan 23:00:25 23:04:18 31° 263° (W) 23:08:09 437.325/437.525
ZACube-1 30 Jan 23:12:29 23:14:52 13° 268° (W) 23:16:58 437.345
AIST 1 30 Jan 23:16:30 23:20:40 42° 267° (W) 23:24:47
POPSAT HIP 1 30 Jan 23:18:46 23:23:04 71° 101° (E) 23:27:19 437.405
DUCHIFAT 1 30 Jan 23:20:24 23:24:42 73° 101° (E) 23:28:57 145.980
UNISAT 6 30 Jan 23:22:46 23:27:05 56° 284° (WNW) 23:31:17 437.425
AISAT 30 Jan 23:51:33 23:52:23 10° 269° (W) 23:52:52 437.250
NANOSAT C BR1 30 Jan 23:55:39 23:59:39 38° 286° (WNW) 00:03:35 145.865
SPROUT 30 Jan 23:56:20 00:00:37 69° 76° (ENE) 00:04:55 437.525
ESTCUBE 1 30 Jan 23:56:54 00:00:26 22° 265° (W) 00:03:52 437.505/2401.250
SRMSAT 30 Jan 23:59:04 00:01:55 13° 198° (SSW) 00:04:39 437.500
ANTELSAT 30 Jan 23:59:47 00:03:06 20° 288° (WNW) 00:06:13 437.575/2403.000
SWISSCUBE 31 Jan 00:06:24 00:08:07 12° 69° (ENE) 00:10:07 437.505
TIGRISAT 31 Jan 00:06:47 00:09:47 18° 289° (WNW) 00:12:34 435.000
QB50P2 31 Jan 00:11:24 00:14:57 25° 287° (WNW) 00:18:22 145.880/145.840
QB50P1 31 Jan 00:20:26 00:23:37 20° 288° (WNW) 00:26:40 145.935-145.965
BEESAT 31 Jan 00:20:37 00:23:30 17° 70° (ENE) 00:26:35 436.000
CUBEBUG 1 31 Jan 00:20:46 00:22:40 12° 268° (W) 00:24:19 437.445
BUGSAT 1 31 Jan 00:22:44 00:26:14 24° 287° (WNW) 00:29:38 437.445
ITUPSAT 1 31 Jan 00:25:20 00:28:29 18° 70° (ENE) 00:31:49 437.325
TISAT 1 31 Jan 00:27:42 00:31:46 46° 261° (W) 00:35:52 437.305
POLYITAN 1 31 Jan 00:37:31 00:39:33 13° 290° (WNW) 00:41:18 437.675
GONETS M04 31 Jan 01:14:03 01:22:39 65° 93° (E) 01:31:17
BEESAT 2 31 Jan 01:28:54 01:32:48 47° 114° (ESE) 01:36:48 435.950
AIST 2 31 Jan 01:35:03 01:38:06 20° 111° (ESE) 01:41:19 435.215
Oscar 19 31 Jan 01:39:35 01:44:36 54° 100° (E) 01:49:36 437.125/150
STARS 31 Jan 01:39:51 01:41:50 13° 70° (ENE) 01:44:04 437.465
SWISSCUBE 31 Jan 01:40:59 01:45:36 52° 260° (W) 01:50:15 437.505
BEESAT 3 31 Jan 01:40:59 01:45:02 82° 118° (ESE) 01:49:11 437.485
KKS-1 31 Jan 01:48:26 01:52:09 27° 73° (ENE) 01:55:59 437.445
O/OREOS (USA 219) 31 Jan 01:53:30 01:57:35 31° 66° (ENE) 02:01:42 437.305
BEESAT 31 Jan 01:56:41 02:01:06 37° 262° (W) 02:05:30 436.000
ITAMSAT 1 31 Jan 02:00:13 02:04:33 27° 96° (E) 02:08:58 435.822/435.867
ITUPSAT 1 31 Jan 02:01:51 02:06:11 34° 262° (W) 02:10:28 437.325
AUBIESAT-1 31 Jan 02:12:03 02:14:16 15° 69° (ENE) 02:16:35 437.475
